When you browse on this site, cookies collect data to enhance your experience and personalize the content and advertising you see.
Visit our Privacy Policy to learn more. By continuing to use the site, you agree to this use of cookies and data.
  • In Portugal
  • List of Countries
  • For 7 days
  • Water Temperature
  • Satellite Maps
  • Weather Map
  • Weather Widgets
  • user-avatar
    Login

    Hourly Weather Andora

    Today, 24 May, Friday

    Time Temperature Precipitation Wind Pressure Humidity
    00:00 +9°C° 0.7 mm 1 mps 624 mmHg 95%
    01:00 +9°C° 2 mm 1 mps 623 mmHg 95%
    02:00 +8°C° 2 mm 1 mps 623 mmHg 96%
    03:00 +8°C° 2 mm 1 mps 623 mmHg 97%
    04:00 +8°C° 2.6 mm 1 mps 623 mmHg 97%
    05:00 +8°C° 2.6 mm 1 mps 623 mmHg 96%
    06:00 +8°C° 2.6 mm 1 mps 622 mmHg 96%
    07:00 +7°C° 1.9 mm 1 mps 623 mmHg 96%
    08:00 +7°C° 1.9 mm 1 mps 623 mmHg 95%
    09:00 +7°C° 1.9 mm 1 mps 623 mmHg 95%
    10:00 +7°C° 1.7 mm 1 mps 623 mmHg 95%
    11:00 +6°C° 1.7 mm 2 mps 622 mmHg 94%
    12:00 +6°C° 1.7 mm 2 mps 622 mmHg 93%
    13:00 +7°C° 0.6 mm 2 mps 622 mmHg 91%
    14:00 +7°C° 0.6 mm 2 mps 622 mmHg 89%
    15:00 +8°C° 0.6 mm 2 mps 622 mmHg 87%
    16:00 +8°C° 0.3 mm 2 mps 622 mmHg 87%
    17:00 +7°C° 0.3 mm 2 mps 622 mmHg 88%
    18:00 +7°C° 0.3 mm 2 mps 622 mmHg 89%
    19:00 +7°C° 1 mm 2 mps 622 mmHg 91%
    20:00 +6°C° 1 mm 2 mps 622 mmHg 93%
    21:00 +6°C° 1 mm 2 mps 622 mmHg 96%
    22:00 +6°C° 1.2 mm 2 mps 622 mmHg 96%
    23:00 +6°C° 1.2 mm 2 mps 622 mmHg 96%

    Tomorrow, 25 May, Saturday

    Time Temperature Precipitation Wind Pressure Humidity
    00:00 +6°C° 1.2 mm 2 mps 622 mmHg 96%
    01:00 +6°C° 1.4 mm 2 mps 622 mmHg 96%
    02:00 +5°C° 1.4 mm 2 mps 622 mmHg 96%
    03:00 +5°C° 1.4 mm 2 mps 622 mmHg 96%
    04:00 +5°C° 1.3 mm 3 mps 622 mmHg 95%
    05:00 +5°C° 1.3 mm 3 mps 622 mmHg 95%
    06:00 +5°C° 1.3 mm 3 mps 622 mmHg 94%
    07:00 +5°C° 0.8 mm 3 mps 622 mmHg 92%
    08:00 +5°C° 0.8 mm 3 mps 623 mmHg 90%
    09:00 +7°C° 0.8 mm 3 mps 623 mmHg 89%
    10:00 +7°C° 0.6 mm 3 mps 623 mmHg 87%
    11:00 +7°C° 0.6 mm 3 mps 623 mmHg 85%
    12:00 +8°C° 0.6 mm 3 mps 624 mmHg 83%
    13:00 +8°C° 0.3 mm 3 mps 623 mmHg 82%
    14:00 +8°C° 0.3 mm 3 mps 623 mmHg 81%
    15:00 +8°C° 0.3 mm 3 mps 623 mmHg 80%
    16:00 +8°C° 0 mm 3 mps 623 mmHg 82%
    17:00 +8°C° 0 mm 3 mps 623 mmHg 83%
    18:00 +8°C° 0 mm 3 mps 624 mmHg 84%
    19:00 +7°C° 0.1 mm 3 mps 624 mmHg 86%
    20:00 +7°C° 0.1 mm 3 mps 624 mmHg 87%
    21:00 +5°C° 0.1 mm 3 mps 624 mmHg 89%
    22:00 +5°C° 0.1 mm 3 mps 624 mmHg 89%
    23:00 +5°C° 0.1 mm 3 mps 624 mmHg 89%

    Day after tomorrow, 26 May, Sunday

    Time Temperature Precipitation Wind Pressure Humidity
    00:00 +5°C° 0.1 mm 3 mps 624 mmHg 90%
    01:00 +5°C° 0 mm 3 mps 624 mmHg 90%
    02:00 +4°C° 0 mm 3 mps 624 mmHg 89%
    03:00 +4°C° 0 mm 3 mps 624 mmHg 89%
    04:00 +5°C° 0 mm 3 mps 624 mmHg 87%
    05:00 +5°C° 0 mm 3 mps 624 mmHg 86%
    06:00 +5°C° 0 mm 3 mps 624 mmHg 84%
    07:00 +8°C° 0 mm 3 mps 625 mmHg 79%
    08:00 +9°C° 0 mm 3 mps 625 mmHg 73%
    09:00 +11°C° 0 mm 3 mps 626 mmHg 68%
    10:00 +11°C° 0 mm 3 mps 626 mmHg 65%
    11:00 +12°C° 0 mm 3 mps 626 mmHg 63%
    12:00 +13°C° 0 mm 3 mps 626 mmHg 61%
    13:00 +13°C° 0 mm 3 mps 626 mmHg 58%
    14:00 +13°C° 0 mm 3 mps 626 mmHg 55%
    15:00 +14°C° 0 mm 3 mps 626 mmHg 53%
    16:00 +13°C° 0 mm 3 mps 625 mmHg 58%
    17:00 +12°C° 0 mm 3 mps 625 mmHg 64%
    18:00 +11°C° 0 mm 3 mps 624 mmHg 69%
    19:00 +10°C° 0 mm 3 mps 624 mmHg 75%
    20:00 +8°C° 0 mm 2 mps 624 mmHg 81%
    21:00 +7°C° 0 mm 2 mps 624 mmHg 87%
    22:00 +7°C° 0 mm 2 mps 624 mmHg 89%
    23:00 +6°C° 0 mm 2 mps 624 mmHg 90%

    27 May, Monday

    Time Temperature Precipitation Wind Pressure Humidity
    00:00 +6°C° 0 mm 2 mps 623 mmHg 92%
    01:00 +5°C° 0 mm 2 mps 623 mmHg 92%
    02:00 +5°C° 0 mm 2 mps 622 mmHg 91%
    03:00 +5°C° 0 mm 2 mps 622 mmHg 91%
    04:00 +5°C° 0 mm 2 mps 622 mmHg 88%
    05:00 +6°C° 0 mm 2 mps 622 mmHg 84%
    06:00 +6°C° 0 mm 2 mps 623 mmHg 80%
    07:00 +9°C° 0 mm 2 mps 624 mmHg 71%
    08:00 +12°C° 0 mm 2 mps 625 mmHg 62%
    09:00 +14°C° 0 mm 2 mps 626 mmHg 53%
    10:00 +15°C° 0 mm 2 mps 626 mmHg 51%
    11:00 +16°C° 0 mm 2 mps 626 mmHg 48%
    12:00 +17°C° 0 mm 2 mps 626 mmHg 46%
    13:00 +16°C° 0 mm 2 mps 625 mmHg 52%
    14:00 +15°C° 0 mm 2 mps 624 mmHg 58%
    15:00 +14°C° 0 mm 2 mps 623 mmHg 64%
    16:00 +13°C° 0.1 mm 2 mps 623 mmHg 71%
    17:00 +12°C° 0.1 mm 2 mps 623 mmHg 78%
    18:00 +10°C° 0.1 mm 2 mps 622 mmHg 85%
    19:00 +9°C° 0.1 mm 2 mps 622 mmHg 87%
    20:00 +8°C° 0.1 mm 2 mps 622 mmHg 90%
    21:00 +7°C° 0.1 mm 2 mps 622 mmHg 93%
    22:00 +7°C° 0.1 mm 2 mps 622 mmHg 93%
    23:00 +6°C° 0.1 mm 2 mps 622 mmHg 93%

    28 May, Tuesday

    Time Temperature Precipitation Wind Pressure Humidity
    00:00 +6°C° 0.1 mm 2 mps 621 mmHg 92%
    01:00 +6°C° 0.1 mm 2 mps 621 mmHg 92%
    02:00 +5°C° 0.1 mm 2 mps 621 mmHg 92%
    03:00 +5°C° 0.1 mm 2 mps 620 mmHg 92%
    04:00 +5°C° 0.2 mm 2 mps 620 mmHg 91%
    05:00 +5°C° 0.2 mm 2 mps 620 mmHg 91%
    06:00 +4°C° 0.2 mm 2 mps 620 mmHg 90%
    07:00 +4°C° 0.2 mm 2 mps 620 mmHg 88%
    08:00 +5°C° 0.2 mm 2 mps 620 mmHg 87%
    09:00 +5°C° 0.2 mm 2 mps 620 mmHg 85%
    10:00 +6°C° 0.3 mm 2 mps 620 mmHg 80%
    11:00 +7°C° 0.3 mm 2 mps 620 mmHg 76%
    12:00 +8°C° 0.3 mm 2 mps 620 mmHg 71%
    13:00 +7°C° 0.9 mm 2 mps 620 mmHg 77%
    14:00 +5°C° 0.9 mm 3 mps 620 mmHg 83%
    15:00 +4°C° 0.9 mm 3 mps 619 mmHg 89%
    16:00 +3°C° 1.1 mm 3 mps 619 mmHg 89%
    17:00 +2°C° 1.1 mm 3 mps 619 mmHg 88%
    18:00 +2°C° 1.1 mm 3 mps 619 mmHg 88%
    19:00 +1°C° 0.1 mm 3 mps 619 mmHg 89%
    20:00 -1°C° 0.1 mm 2 mps 619 mmHg 89%
    21:00 -2°C° 0.1 mm 2 mps 619 mmHg 90%
    22:00 -1°C° 0 mm 2 mps 619 mmHg 90%
    23:00 -1°C° 0 mm 2 mps 620 mmHg 91%

    29 May, Wednesday

    Time Temperature Precipitation Wind Pressure Humidity
    00:00 -1°C° 0 mm 2 mps 620 mmHg 92%
    01:00 +1°C° 0.1 mm 2 mps 620 mmHg 91%
    02:00 +1°C° 0.1 mm 2 mps 620 mmHg 91%
    03:00 +1°C° 0.1 mm 2 mps 621 mmHg 91%
    04:00 +1°C° 0.1 mm 3 mps 621 mmHg 89%
    05:00 +1°C° 0.1 mm 3 mps 622 mmHg 88%
    06:00 +1°C° 0.1 mm 3 mps 622 mmHg 86%
    07:00 +2°C° 0.1 mm 3 mps 623 mmHg 81%
    08:00 +3°C° 0.1 mm 4 mps 623 mmHg 76%
    09:00 +5°C° 0.1 mm 4 mps 624 mmHg 71%
    10:00 +5°C° 0.1 mm 4 mps 624 mmHg 70%
    11:00 +5°C° 0.1 mm 4 mps 624 mmHg 68%
    12:00 +6°C° 0.1 mm 4 mps 624 mmHg 67%
    13:00 +6°C° 0 mm 4 mps 624 mmHg 65%
    14:00 +6°C° 0 mm 4 mps 625 mmHg 63%
    15:00 +7°C° 0 mm 4 mps 625 mmHg 60%
    16:00 +7°C° 0 mm 3 mps 625 mmHg 64%
    17:00 +5°C° 0 mm 3 mps 625 mmHg 67%
    18:00 +5°C° 0 mm 3 mps 625 mmHg 70%
    19:00 +3°C° 0 mm 3 mps 625 mmHg 76%
    20:00 +1°C° 0 mm 3 mps 625 mmHg 81%
    21:00 +1°C° 0 mm 2 mps 625 mmHg 87%
    22:00 -1°C° 0 mm 2 mps 624 mmHg 87%
    23:00 -1°C° 0 mm 2 mps 624 mmHg 87%
    Show more